RSD201 UWKD-UWKD

Flight info

Callsign RSD201
Flight time 0h 35m
Altitude 6000
Route KD005 DCT KD006 DCT KD001 DCT KD002
Aircraft IL96/H-SDE2E3FGHIJ3J4J5M1RWXY/LB1D1

Departure

Time 2026-05-07 19:24
Airport Kazan International Airport (UWKD)

Arrival

Time 2026-05-07 20:00
Airport Kazan International Airport (UWKD)
Time Latitude Longitude Altitude Speed Heading
2026-05-07 18:57 55.60520 49.29895 424 ft 0 kts 303°
2026-05-07 19:10 55.60519 49.29897 397 ft 2 kts 303°
2026-05-07 19:10 55.60506 49.29931 420 ft 3 kts 303°
2026-05-07 19:11 55.60494 49.29967 412 ft 3 kts 293°
2026-05-07 19:11 55.60489 49.30002 412 ft 3 kts 269°
2026-05-07 19:11 55.60490 49.30035 412 ft 3 kts 250°
2026-05-07 19:11 55.60500 49.30062 412 ft 3 kts 219°
2026-05-07 19:12 55.60519 49.30083 412 ft 3 kts 207°
2026-05-07 19:12 55.60539 49.30103 412 ft 1 kts 214°
2026-05-07 19:12 55.60540 49.30103 412 ft 0 kts 214°
2026-05-07 19:14 55.60540 49.30104 412 ft 0 kts 214°
2026-05-07 19:15 55.60539 49.30103 412 ft 0 kts 214°
2026-05-07 19:15 55.60528 49.30089 412 ft 4 kts 214°
2026-05-07 19:16 55.60489 49.30041 412 ft 9 kts 214°
2026-05-07 19:16 55.60424 49.29962 418 ft 14 kts 214°
2026-05-07 19:16 55.60328 49.29889 413 ft 15 kts 187°
2026-05-07 19:16 55.60248 49.29902 418 ft 6 kts 161°
2026-05-07 19:17 55.60194 49.29942 418 ft 11 kts 157°
2026-05-07 19:17 55.60148 49.29971 418 ft 0 kts 171°
2026-05-07 19:17 55.60132 49.29969 418 ft 4 kts 205°
2026-05-07 19:17 55.60108 49.29888 420 ft 13 kts 274°
2026-05-07 19:18 55.60172 49.29697 416 ft 22 kts 305°
2026-05-07 19:18 55.60264 49.29462 414 ft 25 kts 304°
2026-05-07 19:18 55.60342 49.29259 413 ft 19 kts 304°
2026-05-07 19:18 55.60396 49.29121 418 ft 0 kts 304°
2026-05-07 19:19 55.60407 49.29092 418 ft 6 kts 304°
2026-05-07 19:19 55.60437 49.29015 415 ft 10 kts 304°
2026-05-07 19:19 55.60484 49.28892 414 ft 15 kts 304°
2026-05-07 19:19 55.60551 49.28721 418 ft 19 kts 304°
2026-05-07 19:20 55.60630 49.28518 414 ft 18 kts 304°
2026-05-07 19:20 55.60710 49.28311 415 ft 22 kts 304°
2026-05-07 19:20 55.60805 49.28068 416 ft 25 kts 304°
2026-05-07 19:20 55.60910 49.27795 414 ft 28 kts 304°
2026-05-07 19:21 55.60993 49.27582 415 ft 21 kts 304°
2026-05-07 19:21 55.61073 49.27377 414 ft 20 kts 304°
2026-05-07 19:21 55.61158 49.27159 416 ft 14 kts 304°
2026-05-07 19:21 55.61203 49.27042 415 ft 0 kts 304°
2026-05-07 19:22 55.61209 49.27024 417 ft 3 kts 294°
2026-05-07 19:22 55.61210 49.26960 417 ft 7 kts 256°
2026-05-07 19:22 55.61170 49.26870 415 ft 11 kts 216°
2026-05-07 19:22 55.61095 49.26781 419 ft 13 kts 199°
2026-05-07 19:23 55.61046 49.26797 417 ft 5 kts 145°
2026-05-07 19:23 55.61022 49.26851 414 ft 0 kts 123°
2026-05-07 19:23 55.61020 49.26857 414 ft 0 kts 124°
2026-05-07 19:23 55.60895 49.27179 413 ft 74 kts 124°
2026-05-07 19:24 55.60452 49.28323 418 ft 148 kts 124°
2026-05-07 19:24 55.59776 49.30058 750 ft 183 kts 124°
2026-05-07 19:24 55.59072 49.31893 1739 ft 175 kts 124°
2026-05-07 19:24 55.58397 49.33652 2747 ft 173 kts 131°
2026-05-07 19:25 55.57359 49.34656 3450 ft 180 kts 177°
2026-05-07 19:25 55.56117 49.33959 3876 ft 206 kts 218°
2026-05-07 19:25 55.55318 49.31675 3979 ft 236 kts 259°
2026-05-07 19:25 55.55327 49.28736 4001 ft 242 kts 277°
2026-05-07 19:26 55.55565 49.25801 4001 ft 243 kts 279°
2026-05-07 19:26 55.55839 49.22716 4006 ft 262 kts 279°
2026-05-07 19:26 55.55935 49.21636 4004 ft 264 kts 279°
2026-05-07 19:27 55.56660 49.13214 3997 ft 267 kts 278°
2026-05-07 19:27 55.57245 49.06492 3978 ft 266 kts 284°
2026-05-07 19:27 55.57942 49.03473 3989 ft 263 kts 301°
2026-05-07 19:28 55.58917 49.00836 3976 ft 249 kts 304°
2026-05-07 19:28 55.59893 48.98359 3989 ft 244 kts 305°
2026-05-07 19:28 55.60867 48.95892 3986 ft 244 kts 305°
2026-05-07 19:28 55.61898 48.93504 3961 ft 244 kts 319°
2026-05-07 19:29 55.63417 48.92309 3954 ft 240 kts 356°
2026-05-07 19:29 55.64984 48.92840 3964 ft 226 kts 28°
2026-05-07 19:29 55.66271 48.94327 3956 ft 216 kts 35°
2026-05-07 19:29 55.67486 48.95857 3770 ft 213 kts 35°
2026-05-07 19:30 55.68693 48.97371 3517 ft 213 kts 35°
2026-05-07 19:30 55.69860 48.98991 3243 ft 213 kts 53°
2026-05-07 19:30 55.70379 49.01355 3013 ft 205 kts 91°
2026-05-07 19:30 55.70025 49.03715 2750 ft 195 kts 123°
2026-05-07 19:31 55.69294 49.05621 2688 ft 177 kts 126°
2026-05-07 19:31 55.68624 49.07301 2641 ft 158 kts 127°
2026-05-07 19:31 55.68015 49.08837 2518 ft 148 kts 126°
2026-05-07 19:31 55.67431 49.10325 2323 ft 145 kts 126°
2026-05-07 19:32 55.66858 49.11793 2130 ft 144 kts 126°
2026-05-07 19:32 55.66292 49.13251 1942 ft 143 kts 126°
2026-05-07 19:32 55.65730 49.14701 1749 ft 142 kts 126°
2026-05-07 19:32 55.65172 49.16138 1571 ft 141 kts 126°
2026-05-07 19:33 55.64616 49.17575 1376 ft 142 kts 126°
2026-05-07 19:33 55.64055 49.19020 1195 ft 142 kts 125°
2026-05-07 19:33 55.63493 49.20471 1016 ft 144 kts 124°
2026-05-07 19:33 55.62925 49.21930 816 ft 144 kts 123°
2026-05-07 19:34 55.62358 49.23400 638 ft 145 kts 123°
2026-05-07 19:34 55.61786 49.24877 450 ft 146 kts 123°
2026-05-07 19:34 55.61222 49.26341 414 ft 157 kts 125°
2026-05-07 19:34 55.60501 49.28169 927 ft 190 kts 124°
2026-05-07 19:35 55.59815 49.29940 1516 ft 157 kts 124°
2026-05-07 19:35 55.59156 49.31650 1937 ft 183 kts 125°
2026-05-07 19:35 55.58393 49.33624 2426 ft 202 kts 126°
2026-05-07 19:35 55.57366 49.35359 3231 ft 209 kts 150°
2026-05-07 19:36 55.55889 49.35985 3762 ft 231 kts 180°
2026-05-07 19:36 55.54353 49.35081 3927 ft 238 kts 216°
2026-05-07 19:36 55.53372 49.32897 3954 ft 222 kts 251°
2026-05-07 19:36 55.53207 49.30258 3969 ft 217 kts 282°
2026-05-07 19:37 55.53591 49.27692 3972 ft 216 kts 288°
2026-05-07 19:37 55.54040 49.25166 3968 ft 215 kts 288°
2026-05-07 19:37 55.54487 49.22653 3965 ft 213 kts 288°
2026-05-07 19:37 55.54936 49.20152 3997 ft 213 kts 288°
2026-05-07 19:38 55.55382 49.17657 3996 ft 213 kts 288°
2026-05-07 19:38 55.55821 49.15157 3996 ft 213 kts 287°
2026-05-07 19:38 55.56254 49.12655 3994 ft 213 kts 287°
2026-05-07 19:38 55.56690 49.10148 3993 ft 213 kts 287°
2026-05-07 19:39 55.57127 49.07636 3993 ft 213 kts 288°
2026-05-07 19:39 55.57603 49.05157 3992 ft 213 kts 293°
2026-05-07 19:39 55.58286 49.02837 3992 ft 213 kts 302°
2026-05-07 19:39 55.58810 49.01371 3991 ft 213 kts 303°
2026-05-07 19:40 55.59907 48.98456 3986 ft 212 kts 304°
2026-05-07 19:40 55.60737 48.96294 3985 ft 212 kts 304°
2026-05-07 19:40 55.61583 48.94145 3972 ft 212 kts 311°
2026-05-07 19:40 55.62768 48.92648 3985 ft 212 kts 338°
2026-05-07 19:41 55.64136 48.91655 3990 ft 212 kts 335°
2026-05-07 19:41 55.65474 48.90537 3985 ft 212 kts 334°
2026-05-07 19:41 55.66802 48.89393 3983 ft 213 kts 334°
2026-05-07 19:41 55.68133 48.88239 3983 ft 213 kts 334°
2026-05-07 19:42 55.69013 48.87477 3980 ft 213 kts 334°
2026-05-07 19:42 55.70373 48.86298 4266 ft 222 kts 334°
2026-05-07 19:42 55.71776 48.85076 5358 ft 228 kts 334°
2026-05-07 19:42 55.73279 48.83790 6193 ft 253 kts 333°
2026-05-07 19:43 55.74927 48.82404 6863 ft 268 kts 334°
2026-05-07 19:43 55.76624 48.80979 7122 ft 271 kts 334°
2026-05-07 19:43 55.78331 48.79543 7366 ft 272 kts 334°
2026-05-07 19:43 55.80027 48.78039 7603 ft 273 kts 326°
2026-05-07 19:44 55.81332 48.75627 7844 ft 274 kts 300°
2026-05-07 19:44 55.81870 48.72385 7949 ft 277 kts 273°
2026-05-07 19:44 55.81606 48.68987 7975 ft 278 kts 257°
2026-05-07 19:44 55.81072 48.65670 7961 ft 278 kts 254°
2026-05-07 19:45 55.80491 48.62383 7955 ft 279 kts 252°
2026-05-07 19:45 55.79507 48.59433 7934 ft 283 kts 224°
2026-05-07 19:45 55.77760 48.57854 7949 ft 287 kts 193°
2026-05-07 19:45 55.75768 48.57911 7954 ft 288 kts 166°
2026-05-07 19:46 55.74027 48.59449 7945 ft 274 kts 140°
2026-05-07 19:46 55.72850 48.61970 7953 ft 258 kts 121°
2026-05-07 19:46 55.71965 48.64633 7952 ft 243 kts 119°
2026-05-07 19:46 55.71148 48.67181 7948 ft 233 kts 119°
2026-05-07 19:47 55.70328 48.69675 7734 ft 234 kts 120°
2026-05-07 19:47 55.69478 48.72122 7493 ft 232 kts 121°
2026-05-07 19:47 55.68622 48.74544 7244 ft 231 kts 122°
2026-05-07 19:47 55.67772 48.76940 7020 ft 228 kts 121°
2026-05-07 19:48 55.66932 48.79303 6973 ft 226 kts 121°
2026-05-07 19:48 55.66098 48.81666 6972 ft 226 kts 121°
2026-05-07 19:48 55.65262 48.84038 6971 ft 226 kts 121°
2026-05-07 19:48 55.64427 48.86402 6973 ft 227 kts 121°
2026-05-07 19:49 55.63590 48.88772 6973 ft 226 kts 121°
2026-05-07 19:49 55.62746 48.91127 6970 ft 227 kts 126°
2026-05-07 19:49 55.61506 48.92778 6958 ft 228 kts 167°
2026-05-07 19:49 55.59949 48.92672 6972 ft 227 kts 203°
2026-05-07 19:50 55.58609 48.91246 6982 ft 225 kts 217°
2026-05-07 19:50 55.57378 48.89551 6972 ft 223 kts 231°
2026-05-07 19:50 55.56705 48.87149 6968 ft 219 kts 265°
2026-05-07 19:50 55.56893 48.84524 6970 ft 216 kts 297°
2026-05-07 19:51 55.57845 48.82526 6969 ft 214 kts 329°
2026-05-07 19:51 55.59245 48.81760 6969 ft 214 kts
2026-05-07 19:51 55.60649 48.82443 6967 ft 216 kts 32°
2026-05-07 19:51 55.61642 48.84419 6972 ft 220 kts 66°
2026-05-07 19:52 55.62037 48.87091 6983 ft 222 kts 74°
2026-05-07 19:52 55.62625 48.89539 6885 ft 219 kts 48°
2026-05-07 19:52 55.63869 48.91032 6629 ft 214 kts 12°
2026-05-07 19:52 55.65343 48.91227 6397 ft 213 kts 357°
2026-05-07 19:53 55.66822 48.91052 6145 ft 212 kts 354°
2026-05-07 19:53 55.68284 48.90811 5928 ft 210 kts 354°
2026-05-07 19:53 55.69742 48.90558 5655 ft 211 kts 354°
2026-05-07 19:53 55.71200 48.90300 5392 ft 211 kts 354°
2026-05-07 19:54 55.72659 48.90067 5144 ft 210 kts
2026-05-07 19:54 55.74014 48.90887 4834 ft 212 kts 43°
2026-05-07 19:54 55.74748 48.93127 4561 ft 213 kts 78°
2026-05-07 19:54 55.74680 48.95729 4274 ft 214 kts 110°
2026-05-07 19:55 55.73836 48.97864 3937 ft 214 kts 144°
2026-05-07 19:55 55.72580 48.99237 3697 ft 211 kts 147°
2026-05-07 19:55 55.71412 49.00717 3484 ft 207 kts 139°
2026-05-07 19:55 55.70429 49.02531 3178 ft 200 kts 130°
2026-05-07 19:56 55.69639 49.04484 2962 ft 189 kts 124°
2026-05-07 19:56 55.68950 49.06364 2730 ft 174 kts 124°
2026-05-07 19:56 55.68315 49.08072 2615 ft 155 kts 125°
2026-05-07 19:56 55.67739 49.09580 2402 ft 144 kts 126°
2026-05-07 19:57 55.67185 49.11006 2205 ft 139 kts 126°
2026-05-07 19:57 55.66638 49.12406 2048 ft 137 kts 127°
2026-05-07 19:57 55.66093 49.13797 1874 ft 137 kts 126°
2026-05-07 19:57 55.65553 49.15180 1717 ft 135 kts 126°
2026-05-07 19:58 55.65020 49.16550 1521 ft 135 kts 126°
2026-05-07 19:58 55.64485 49.17926 1349 ft 136 kts 126°
2026-05-07 19:58 55.63948 49.19306 1164 ft 136 kts 125°
2026-05-07 19:58 55.63408 49.20697 987 ft 137 kts 124°
2026-05-07 19:59 55.62869 49.22088 797 ft 137 kts 124°
2026-05-07 19:59 55.62328 49.23483 623 ft 137 kts 124°
2026-05-07 19:59 55.61789 49.24876 466 ft 137 kts 123°
2026-05-07 19:59 55.61266 49.26219 411 ft 117 kts 124°
2026-05-07 20:00 55.60921 49.27114 412 ft 62 kts 124°
2026-05-07 20:00 55.60771 49.27499 421 ft 22 kts 124°
2026-05-07 20:00 55.60678 49.27738 422 ft 26 kts 124°
2026-05-07 20:00 55.60569 49.28020 415 ft 30 kts 124°
2026-05-07 20:01 55.60447 49.28332 418 ft 31 kts 124°
2026-05-07 20:01 55.60392 49.28536 426 ft 10 kts 82°
2026-05-07 20:01 55.60434 49.28630 423 ft 10 kts 33°
2026-05-07 20:01 55.60507 49.28714 419 ft 6 kts 34°
2026-05-07 20:02 55.60520 49.28730 419 ft 0 kts 34°
2026-05-07 20:02 55.60521 49.28731 419 ft 0 kts 34°
2026-05-07 20:03 55.60523 49.28734 419 ft 1 kts 39°
2026-05-07 20:03 55.60525 49.28740 418 ft 0 kts 65°
2026-05-07 20:03 55.60526 49.28748 417 ft 2 kts 77°
2026-05-07 20:03 55.60520 49.28790 415 ft 6 kts 120°
2026-05-07 20:04 55.60490 49.28875 418 ft 11 kts 122°
2026-05-07 20:04 55.60438 49.29010 415 ft 16 kts 124°
2026-05-07 20:04 55.60366 49.29197 414 ft 21 kts 124°
2026-05-07 20:04 55.60277 49.29425 415 ft 24 kts 124°
2026-05-07 20:05 55.60196 49.29632 412 ft 18 kts 124°
2026-05-07 20:05 55.60134 49.29791 414 ft 9 kts 124°
2026-05-07 20:05 55.60117 49.29913 417 ft 9 kts 70°
2026-05-07 20:05 55.60177 49.29954 418 ft 12 kts 340°
2026-05-07 20:06 55.60265 49.29889 421 ft 11 kts 347°
2026-05-07 20:06 55.60346 49.29888 414 ft 13 kts 13°
2026-05-07 20:06 55.60413 49.29951 418 ft 6 kts 33°
2026-05-07 20:06 55.60458 49.30004 419 ft 1 kts 31°
2026-05-07 20:07 55.60473 49.30008 413 ft 4 kts 347°
2026-05-07 20:07 55.60497 49.29951 418 ft 9 kts 305°
2026-05-07 20:07 55.60509 49.29920 415 ft 2 kts 304°
2026-05-07 20:07 55.60521 49.29891 414 ft 2 kts 304°
2026-05-07 20:08 55.60523 49.29883 415 ft 0 kts 304°
2026-05-07 20:08 55.60524 49.29881 415 ft 0 kts 304°